User: anonymous   Login
Location: Parc des �les de St-Timoth�e
(45.2924°N, 74.0481°W)
Time: 05:56:24
(UTC-04:00)
Language:

Cosmos 2173 Rocket - Orbit

View from above orbital plane
View from above orbital plane
View from above satellite
View from above satellite

Ground track
Ground track

The orbit data is extracted from the following two-line orbital elements,

1 21797U 91081B   16177.05083752  .00000080  00000-0  64655-4 0  9995
2 21797  82.9538 327.3956 0038213  11.2421 126.4274 13.77377974235232
Epoch (UTC): 25 June 2016 01:13:12
Eccentricity: 0.0038213
inclination: 82.9538°
perigee height: 945 km
apogee height: 1001 km
right ascension of ascending node: 327.3956°
argument of perigee: 11.2421°
revolutions per day: 13.77377974
mean anomaly at epoch: 126.4274°
orbit number at epoch: 23523

The dashed part of the orbit path shows where the satellite is in the earth's shadow,  

DLR